STARLINK-1400, 45700

Orbit data source: Space-Track

STARLINK-1400, 45700 is a payload satellite owned by SpaceX/Seattle (US) in LEO that was launched on Thu, 04 Jun 2020 UTC via an FALCON 9 launch vehicle from the Air Force Eastern Test Range (AFETR). Payload-class satellites include a variety of spacecraft equipped with specific instruments for various scientific and technological missions. These include communications satellites like Starlink; space stations such as the ISS; scientific satellites like the Hubble; Earth observation satellites from companies like Planet Labs, Umbra, and HawkEye 360; GPS; miniature CubeSats for education and research; and military/defense satellites.

Loading next visibility...
Identifier
45700, 2020-035AV
Orbit
LEO
Last TLE update
14 hours ago
Origin
Manufacturer
SpaceX/Seattle
Mission
Operational Commercial Communications
Bus & Motor
STARLINK, Unknown motor
Mass
260 kg wet, ~248 kg dry
Launch date (UTC)
2020-06-04 (5 years ago)
Launch vehicle
FALCON 9
Launch site
Air Force Eastern Test Range (AFETR)
Object type
Payload
Rocket body
Debris
Shape & HBR
Box + 1 Pan, 8.86 m
Radar Cross Section
13.562 m², Large (>1 m²)

Expand to show TLE details & history

TLE from 14 hours ago
0 STARLINK-1400
1 45700U 20035AV  25191.74423487 -.00000723  00000-0 -29652-4 0  9995
2 45700  53.0556  42.7543 0001500  91.3169 268.7992 15.06397919282681
Epoch: 2025-07-10T17:51Z
TLE epoch observation values (Epoch: 2025-07-10T17:51:41.892Z)
Latitude
-0.00002°
Longitude
-154.07639°
Altitude
548.119 km
Speed
7.589 km/s
True Right ascension
02h 51m 01s
True Declination
0° 00' 00"
Sunlit
Object was in daylight at epoch
Visualization orbit readout
Latitude
-53.08714°
Longitude
107.98955°
Altitude
566.711 km
Speed
7.577 km/s
Apparent Right ascension
06h 41m 38s
Apparent Declination
-85° 21' 53"
Sunlit
Object is in full shadow
Visualization observer readout
Local Sidereal Time
20:04:13
Azimuth
177.721° S
Elevation
-44.232°
Doppler factor
1
Orbital elements
Apogee altitude
548.527 km
Perigee altitude
546.45 km
Semi-major axis
6,925.625 km
Eccentricity
0.00015
Inclination
53.0556°
RAAN
42.7543°
Arg. of periapsis
91.3169°
True anomaly
Unknown
Mean anomaly
268.7992°
Eccentric anomaly
Unknown
Mean motion
3.76578 °/min
Orbital period
95.6 mins
BSTAR
-0.000029652
Loading maneuver chart data...
Loading SW <> Apogee altitude chart data...

STARLINK-1400 Visibility forecast

Observer location: undefined°, undefined°

Span
Click to sort rows by Start time (UTC) header in descending order
Start Az.
Max El. time (UTC)
Max El. Az.
Max El.
End time (UTC)
End Az.
7 mins2025-07-11 16:18:46.956Z209.173° SW2025-07-11 16:22:46.956Z109.441° ESE36.578°2025-07-11 16:25:46.956Z61.128° ENE
5 mins2025-07-11 17:59:46.956Z285.08° WNW2025-07-11 18:01:46.956Z326.705° NNW25.382°2025-07-11 18:04:46.956Z26.883° NE
5 mins2025-07-11 23:01:46.956Z329.812° NNW2025-07-11 23:03:46.956Z35.193° NE38.466°2025-07-11 23:06:46.956Z108.627° ESE
4 mins2025-07-12 00:41:46.956Z257.154° W2025-07-12 00:42:46.956Z236.868° WSW20.242°2025-07-12 00:45:46.956Z184.537° SSW
|